sat.trackr.live / text

‹ back to catalog

STARLINK-5293

NORAD 55295 · 2023-010AC

PAYLOAD ACTIVE UNKNOWN

§ Identity

Operator
Country
US
Launch date
2023-01-19
Launch site
AFWTR
Launch vehicle
Mass (kg)
RCS (m²)

Purposes: comms

External: N2YO · Heavens-Above · Gunter

§ Orbital elements

Epoch: 2026-05-25T04:52:52.864896Z

Period
96.11 min
Inclination
69.9990°
Eccentricity
0.0003899
Mean motion
14.98331512 rev/d
Perigee alt
569.3 km
Apogee alt
574.8 km
Semi-major
6,950.2 km
B*
2.4542e-5
RAAN
211.6667°
Arg perigee
268.9895°
Mean anomaly
91.0817°
Rev number
18,424

§ Raw data

STARLINK-52931 55295U 23010AC  26145.20338964  .00000200  00000+0  24542-4 0  99972 55295  69.9990 211.6667 0003899 268.9895  91.0817 14.98331512184247

JSON: /api/v1/satellites/55295 · /tle

For live sub-satellite position, see the globe view (requires WebGL).

§ Visibility from observer

Set your observer location to see the next 7 days of passes ≥ 10°. The values pass through the URL so the page stays shareable.

No JS? Fill the form by hand. The geolocation button needs JavaScript.